Regional Weather Roundup
Issued by NWS

Home | Current Version | Previous Version | Text Only | Print | Product List | Glossary Off
Versions: 1 2 3 4 5 6 7 8 9 10 11 12 13 14 15 16 17 18 19 20 21 22 23 24 25 26 27 28 29 30 31 32 33 34 35 36 37 38 39 40 41 42 43 44 45 46 47 48 49 50

000
ASUS43 KMKX 030100
RWRWI

WISCONSIN REGIONAL WEATHER ROUNDUP
NATIONAL WEATHER SERVICE MILWAUKEE/SULLIVAN WI
800 PM CDT TUE JUN 02 2015

NOTE: "FAIR" INDICATES FEW OR NO CLOUDS BELOW 12,000 FEET WITH NO
SIGNIFICANT WEATHER AND/OR OBSTRUCTIONS TO VISIBILITY.

WIZ001-002-006>008-014>016-023>028-030200-
NORTHWEST WISCONSIN

CITY           SKY/WX    TMP DP  RH WIND       PRES   REMARKS
SUPERIOR ARPT  CLOUDY    49  40  69 NE5       29.94F
ASHLAND        MOCLDY    70  49  47 S6        29.95S
HAYWARD        MOCLDY    69  49  48 S8        29.97R
SIREN          LGT RAIN  69  53  55 S9        29.95S
CUMBERLAND     MOCLDY    66  52  59 S10       29.97S
RICE LAKE      MOCLDY    69  50  50 SE13      29.99S
CHETEK         MOCLDY    68  53  58 SE5       29.98S
LADYSMITH      MOCLDY    69  48  46 S5        30.00S
EAU CLAIRE     PTCLDY    69  49  48 S13G18    29.98S
MENOMONIE      PTCLDY    71  52  51 SE9       29.98S
NEW RICHMOND   MOCLDY    69  52  54 S8        29.95S
OSCEOLA        CLOUDY    71  53  52 SE8       29.96S
$$

WIZ003>005-009-010-017-018-030200-
NORTH CENTRAL WISCONSIN

CITY           SKY/WX    TMP DP  RH WIND       PRES   REMARKS
MANITOWISH WTR MOCLDY    65  38  36 S8        30.01S
ARBOR VITAE    MOCLDY    67  38  35 S8        30.02S
WOODRUFF       MOCLDY    67  38  35 S8        30.02S
RHINELANDER    PTCLDY    67  39  35 S3        30.04S
EAGLE RIVER    PTCLDY    67  33  28 S3        30.02F
LAND O LAKES   CLEAR     68  32  26 S6        30.03S
PHILLIPS       CLOUDY    66  43  43 S10       30.00S
TOMAHAWK       MOCLDY    65  42  43 CALM      30.03F
MEDFORD        MOCLDY    65  45  47 SE6       30.02F
MERRILL        MOCLDY    68  43  39 S7        30.04S
$$

WIZ029-030-035-036-043>047-030200-
CENTRAL WISCONSIN

CITY           SKY/WX    TMP DP  RH WIND       PRES   REMARKS
WAUSAU         MOCLDY    68  43  40 S9        30.01F
MOSINEE        CLEAR     64  43  45 S7        30.04S
MARSHFIELD     MOCLDY    67  42  40 S7        30.02F
STEVENS POINT  PTCLDY    67  40  37 S9        30.04S
WAUPACA        PTCLDY    69  40  34 SE10      30.05S
WAUTOMA        NOT AVBL
WISC RAPIDS    PTCLDY    69  40  34 S5        30.04S
CAMP DOUGLAS   NOT AVBL
$$

WIZ011>013-019>022-031-037>040-048>050-030200-
NORTHEAST WISCONSIN

CITY           SKY/WX    TMP DP  RH WIND       PRES   REMARKS
ANTIGO         CLEAR     61  46  58 S9        30.05S
SHAWANO        CLEAR     66  43  42 SE7       30.06S
OCONTO         CLEAR     64  37  37 S8        30.07S
STURGEON BAY   CLEAR     61  34  36 S7        30.11S
GREEN BAY      CLEAR     63  38  39 SE7       30.07F
MANITOWOC      NOT AVBL
APPLETON       PTCLDY    63  37  39 SE10      30.07F
CLINTONVILLE   CLEAR     64  39  39 S6        30.06R
OSHKOSH        CLEAR     64  44  48 SE9       30.05F
$$

WIZ032>034-041-042-053>061-030200-
SOUTHWEST WISCONSIN

CITY           SKY/WX    TMP DP  RH WIND       PRES   REMARKS
LA CROSSE      PTCLDY    72  50  45 S10       29.99F
SPARTA         CLEAR     69  45  42 S5        30.02F
VIROQUA        PTCLDY    68  49  49 S5        30.03F
BOSCOBEL       PTCLDY    69  48  47 S5        30.03S
PRAIRIE DU CHI CLEAR     70  47  42 SE7       30.01F
PLATTEVILLE    MOCLDY    69  47  45 S7        30.05S
$$

WIZ056-057-062-063-064-067-068-030200-
SOUTH CENTRAL WISCONSIN

CITY           SKY/WX    TMP DP  RH WIND       PRES   REMARKS
REEDSBURG      MOCLDY    69  47  46 SE3       30.03F
BARABOO/DELLS  MOCLDY    67  45  45 S6        30.04F
LONE ROCK      NOT AVBL
MINERAL POINT  MOCLDY    70  43  37 S5        30.05F
MADISON        MOCLDY    70  45  40 S8        30.04F
MIDDLETON      PTCLDY    70  42  35 S8        30.05F
WATERTOWN      CLEAR     66  47  50 SE8       30.06S
MONROE         PTCLDY    68  45  42 S6        30.06S
JANESVILLE     CLEAR     70  43  37 S6        30.05S
$$

WIZ051-052-058>065-066-070>072-030200-
SOUTHEAST WISCONSIN

CITY           SKY/WX    TMP DP  RH WIND       PRES   REMARKS
MILWAUKEE      MOCLDY    56  44  64 SE7       30.09F
WAUKESHA       CLEAR     61  43  51 E7        30.10S
MILWAUKEE/TIMM CLEAR     61  36  39 E6        30.09F
RACINE         CLEAR     56  46  69 E5        30.11F
BURLINGTON     CLEAR     62  38  41 E7        30.08F
KENOSHA        CLEAR     56  46  69 E7        30.09F
FOND DU LAC    CLEAR     63  46  54 SE9       30.06F
SHEBOYGAN      CLEAR     57  44  62 SE5       30.09F
WEST BEND      CLEAR     59  43  55 E8        30.09F
JUNEAU         CLEAR     65  48  53 SE9       30.07F
$$

LSZ147-162-030200-
LAKE SUPERIOR

STATION/POSITION TIME  TEMP    WIND        PRES    WAVE
                       AIR SEA DIR/SP/G            HT/PER
                 (UTC) (F)     (DEG/KT/KT) (MB)    (FT/S)
W MID LAKE BUOY  2350   44 37   90/ 12/ 12   N/A     1
DEVILS ISLAND    0000   55     100/  5/  6   N/A
PORT WING        0040   43      10/  5/  6   N/A
SAXON HARBOR     0000   76     200/  3/  7   N/A
$$

LMZ867-665-643>646-030200-
LAKE MICHIGAN

STATION/POSITION TIME  TEMP    WIND        PRES    WAVE
                       AIR SEA DIR/SP/G            HT/PER
                 (UTC) (F)     (DEG/KT/KT) (MB)    (FT/S)
CHAMBERS ISLAND  0000   63     160/  4/ 12   N/A
N MID LAKE BUOY  2350   41 38  180/  6/  6   N/A     0
NORTHPORT PIER   0000   52     140/ 13/ 13   N/A
SISTER BAY       0003   66     180/ 15/ 18   N/A
ALGOMA LAKESHORE 0009          200/  8/  9   N/A
KEWAUNEE LAKESHO 0000   53     180/  9/ 11   N/A
SHEBOYGAN LAKESH 0000   57     170/ 10/ 10   N/A
PORT WASHINGTON  0040   51      CALM  /  3   N/A
ATWATER BUOY     0000   48 49  350/  2/  2   N/A
MILWAUKEE LAKESH 0000   49      50/  4/  5   N/A
S MID LAKE BUOY  2350   45 39  350/  6/  6   N/A     0
KENOSHA   LAKESH 0000   53      40/  2/  3   N/A
$$

TC  - TEMPERATURE IN CELSIUS
VSB - VISIBILITY IN STATUTE MILES
WCI - WIND CHILL INDEX
HX  - HEAT INDEX




USA.gov is the U.S. government's official web portal to all federal, state and local government web resources and services.